Temperature
19 19 19 19 19 19 19 19 19 19 19 19 19 19 19 19 19 19 19 19 19 19 19 19 19 19 19 19 19 19 19 19 19 19 19 19 19 19 19 18 18 18 18
19 19 19 19 19 19 19 19 19 19 19 19 18 19 18 18 18 18 19 19 19 19 19 19 19 19 19 18 18 18 19 19 19 19 19 18 18 19 19 18 18 18 18
19 19 19 19 19 19 18 18 18 18 18 18 18 18 18 18 18 18 18 18 18 18 18 18 18 18 18 18 18 18 18 18 19 18 18 18 18 18 18 18 18 18 18
19 18 19 19 19 18 18 18 18 18 18 18 18 18 18 18 18 18 18 18 18 18 18 18 18 18 18 18 18 18 18 18 18 18 18 18 18 18 18 18 18 18 18
19 19 19 19 18 18 18 18 18 18 18 18 18 18 18 18 18 18 18 18 18 18 18 18 18 18 18 18 18 18 18 18 18 18 18 18 18 18 18 18 18 18 18
19 19 19 19 18 18 18 18 18 18 18 17 17 18 18 18 18 18 18 18 18 18 18 18 18 18 18 18 18 18 18 18 18 18 18 18 18 18 18 18 18 18 18
19 19 19 18 18 18 18 18 17 17 17 17 17 17 17 17 17 17 17 18 18 18 18 18 18 18 18 18 18 18 18 18 18 18 18 18 18 18 18 18 18 18 18
19 19 18 18 18 18 17 17 17 17 17 17 16 17 17 17 17 17 17 17 17 17 17 18 18 18 18 18 18 18 18 18 18 18 18 18 18 18 18 18 18 18 18
19 19 18 18 18 17 17 17 17 17 16 16 16 16 16 16 17 17 17 17 17 17 17 17 17 18 18 18 18 18 18 18 18 18 18 18 18 18 18 18 18 18 18
19 19 19 18 18 17 17 17 17 16 16 16 16 16 16 16 16 16 16 16 17 17 17 17 17 17 17 18 18 18 18 18 18 18 18 18 18 18 18 18 18 18 18
20 19 19 18 18 18 17 17 16 16 16 16 16 16 15 16 16 16 16 16 16 16 17 17 17 17 17 17 18 18 18 18 18 18 18 18 18 18 18 18 18 18 18
20 19 19 19 18 18 17 17 16 16 16 16 15 15 15 15 16 16 16 16 16 16 16 17 17 17 17 17 17 17 18 18 18 18 18 18 18 18 18 18 18 18 18
20 19 19 19 18 18 17 17 16 16 16 16 15 15 15 15 15 16 16 16 16 16 16 16 16 17 17 17 17 17 17 17 18 18 18 18 18 18 18 18 18 18 18
20 19 19 18 18 17 17 17 16 16 16 16 15 15 15 15 15 15 15 15 16 16 16 16 16 16 17 17 17 17 17 17 18 17 18 18 18 18 18 18 18 18 18
20 19 19 18 18 17 17 17 16 16 16 16 15 15 15 15 15 15 15 15 15 15 16 16 16 16 16 16 17 17 17 17 17 17 17 18 18 18 18 18 18 18 18
20 20 19 18 17 17 17 16 16 16 16 15 15 15 15 15 15 15 15 15 15 15 15 16 16 16 16 16 17 17 17 17 17 17 17 18 18 18 18 18 18 18 18
20 20 18 18 17 17 16 16 16 16 15 15 15 15 15 15 15 15 15 15 15 15 15 15 15 16 16 16 16 16 17 17 17 17 17 17 18 18 18 18 18 18 18
20 19 18 18 17 17 16 15 15 15 15 15 15 14 14 14 14 14 14 15 15 15 15 15 15 15 15 16 16 16 17 17 17 17 17 17 17 18 18 18 18 18 18
20 19 18 18 17 16 16 16 15 15 15 15 14 14 14 14 14 14 14 14 14 14 14 15 15 15 15 15 16 16 16 17 17 17 17 17 17 18 18 18 18 18 18
19 19 18 17 17 16 16 16 15 15 15 14 14 14 14 13 14 14 14 14 14 14 14 14 14 15 15 15 15 16 16 16 17 17 17 17 17 17 18 18 18 18 18
19 18 18 18 17 16 16 15 15 15 15 14 14 14 13 13 13 13 13 14 14 14 14 14 14 14 15 15 15 16 16 16 16 17 17 17 17 17 17 17 17 17 18
19 18 19 18 17 16 16 15 15 15 14 14 14 14 13 13 13 13 13 13 13 14 14 14 14 14 14 15 15 15 16 16 16 16 16 17 17 17 17 17 17 17 17
19 18 18 18 17 16 15 15 15 14 14 14 14 14 13 13 13 13 13 13 13 13 13 13 14 14 14 14 15 15 15 15 16 16 16 16 17 17 17 17 17 17 17
19 19 18 18 17 16 15 15 14 14 14 14 14 14 13 13 13 13 13 13 13 13 13 13 13 13 14 14 14 14 15 15 15 16 16 16 16 16 17 17 17 17 17
19 18 18 17 16 16 15 15 14 14 14 14 14 14 14 14 13 13 13 13 13 13 13 13 13 13 13 14 14 14 14 15 15 15 15 16 16 16 16 16 16 17 17
19 18 17 17 16 15 15 14 14 14 14 14 14 14 14 14 14 13 13 13 13 13 13 13 13 13 13 13 14 14 14 14 15 15 15 15 16 16 16 16 16 16 16
Wind_Speed
10 12 11 10 8 7 7 6 6 6 5 5 4 4 4 4 4 4 4 4 5 5 5 5 5 5 5 5 5 5 6 6 6 5 4 4 4 4 5 5 5 6 8
13 14 12 10 8 7 6 6 5 5 4 4 3 3 2 2 2 3 3 3 3 3 4 4 4 4 4 5 5 5 5 6 5 5 3 1 2 3 4 5 6 6 7
13 14 12 10 8 7 6 5 5 4 4 3 3 2 2 3 3 3 3 3 3 3 3 3 4 4 4 4 4 5 5 5 6 6 7 5 3 5 4 5 6 6 7
12 13 12 10 8 7 6 5 5 4 4 3 3 3 3 3 4 4 4 4 4 4 3 2 3 3 3 4 4 4 4 5 6 8 7 2 3 6 6 5 5 5 6
12 15 13 10 8 7 6 5 5 4 4 3 3 3 3 3 4 5 4 5 5 5 4 3 2 2 3 3 4 4 4 6 7 9 7 2 6 7 6 5 4 4 5
12 14 13 11 9 7 6 5 5 4 4 3 3 3 3 4 4 5 5 5 5 5 5 4 3 3 3 3 3 4 5 6 9 8 4 2 6 6 5 5 4 4 4
9 11 12 11 9 7 6 5 5 4 4 3 3 3 4 5 5 5 6 5 5 5 5 5 4 3 3 3 3 4 5 7 9 8 4 4 8 7 5 5 4 4 4
8 9 12 11 10 8 7 6 5 4 4 4 4 4 5 5 6 7 7 6 6 6 6 6 5 4 4 4 4 5 5 7 7 7 2 5 9 8 6 5 4 4 4
6 6 7 10 10 9 8 6 4 2 1 3 4 5 6 7 8 8 8 7 6 6 6 6 6 6 6 5 5 5 6 7 7 8 5 6 9 8 6 5 4 5 5
5 4 5 5 6 6 8 8 6 4 3 4 5 7 8 10 11 11 10 8 7 7 7 8 8 7 6 6 6 6 7 7 8 8 2 7 10 9 6 5 5 5 5
5 3 4 3 4 2 3 7 6 6 6 6 7 8 9 8 7 8 7 7 7 7 8 8 9 8 8 8 8 7 7 8 7 5 3 9 10 8 7 6 5 6 6
5 4 3 3 3 3 4 4 1 1 3 4 1 1 4 5 5 5 2 7 7 8 8 9 10 9 8 7 8 8 7 9 6 4 5 11 9 8 7 6 6 6 6
5 5 5 4 4 4 3 3 2 2 1 2 4 4 4 3 4 3 1 4 6 7 5 6 8 8 7 6 5 6 6 5 3 2 5 10 9 8 7 6 7 7 7
6 6 5 5 5 5 5 2 1 1 2 2 4 5 3 2 2 2 1 1 2 2 2 2 2 4 5 6 5 5 4 3 3 2 7 9 8 8 8 7 8 8 7
6 5 6 4 5 4 3 2 2 2 2 2 3 4 3 2 2 3 2 1 2 2 1 1 2 2 3 2 3 3 3 3 4 3 6 10 10 9 9 9 8 9 8
6 6 7 4 4 2 2 3 4 2 1 2 3 5 4 2 2 2 3 2 2 1 1 1 2 1 2 2 2 3 3 3 4 4 5 8 10 10 10 10 10 10 9
6 7 8 3 3 5 6 5 3 2 4 3 3 7 7 6 4 2 3 3 2 2 1 1 2 1 2 2 2 3 3 2 2 3 4 6 8 9 11 11 10 9 10
6 6 7 4 4 5 4 3 3 3 4 3 4 6 9 9 8 3 3 3 3 3 1 1 0 1 1 1 1 2 2 2 2 2 3 4 6 7 10 12 11 10 11
6 4 7 7 3 5 3 0 1 3 2 2 4 5 7 9 9 4 3 3 3 3 3 3 2 1 1 1 2 2 2 2 2 3 2 2 4 6 8 11 13 12 11
6 3 6 7 3 4 2 2 3 3 3 3 3 4 6 6 7 5 4 4 4 3 3 3 2 1 1 1 3 2 2 2 2 2 2 2 2 4 7 8 10 10 12
6 3 5 5 6 4 2 2 3 2 2 3 3 3 3 5 6 4 4 4 4 3 3 3 2 2 2 1 1 2 1 2 2 2 2 2 2 2 4 7 8 9 10
7 4 4 6 6 6 3 2 1 2 1 2 2 3 5 5 6 6 5 4 3 3 4 3 3 2 2 1 1 1 1 1 1 2 2 2 2 1 2 4 6 7 9
8 6 3 7 7 6 4 2 2 2 1 1 1 3 2 2 3 4 5 5 4 3 3 3 3 2 2 2 1 1 1 0 1 1 2 2 1 1 1 1 2 5 7
8 6 5 7 6 6 4 3 1 1 2 2 1 2 0 2 3 3 4 4 4 4 4 4 4 3 2 2 2 2 1 1 0 1 1 0 1 2 1 1 2 3 5
8 7 4 7 7 6 4 4 1 1 1 1 1 1 1 2 2 2 2 3 3 3 3 3 3 2 2 2 2 2 2 2 2 1 1 1 1 1 1 0 1 1 3
8 7 6 6 6 6 4 4 4 2 1 1 1 1 2 0 1 3 1 3 3 3 3 3 3 2 1 2 2 2 2 2 2 2 1 1 1 1 1 0 0 1 3
Wind_Direction
108 111 109 102 97 94 90 87 83 78 74 76 70 64 54 39 25 22 20 20 20 19 17 17 17 15 15 21 24 24 24 23 23 22 32 51 68 70 62 58 62 85 96
115 114 109 103 97 93 90 89 87 80 74 70 62 54 40 18 350 348 351 353 354 1 5 6 7 4 4 9 9 13 14 9 1 351 342 316 134 106 82 65 71 89 96
116 118 110 100 94 89 86 84 80 77 69 60 44 22 4 350 332 321 324 322 316 319 339 353 355 355 353 355 356 357 360 353 341 327 306 274 185 138 109 89 92 97 97
111 108 103 99 90 84 78 75 70 64 57 43 23 3 345 335 328 316 312 308 304 300 303 318 342 348 345 343 343 342 339 334 324 314 298 280 149 127 115 106 103 103 105
100 98 97 92 85 79 72 66 61 55 46 29 13 355 340 331 321 313 312 306 302 300 290 278 285 311 325 335 336 330 325 321 315 304 301 39 107 125 119 117 113 111 113
103 104 102 94 87 79 71 64 57 52 42 24 1 342 325 313 308 305 299 297 293 288 287 272 255 256 280 301 317 317 318 312 308 298 295 99 114 126 122 124 121 126 126
104 110 113 110 104 96 85 71 55 42 30 12 350 329 311 302 293 284 281 275 273 269 268 262 254 247 265 277 284 293 300 304 288 287 291 116 122 128 127 124 127 132 138
107 114 124 132 131 130 121 103 79 47 17 356 339 321 307 296 284 271 261 257 258 261 259 252 245 242 248 257 261 265 274 284 295 306 280 141 138 133 129 129 140 146 145
105 109 125 143 149 152 141 129 117 103 3 314 304 296 289 278 270 261 254 248 251 254 255 251 238 235 236 239 243 252 257 267 282 283 275 139 142 137 136 138 145 155 161
116 113 116 129 124 144 156 152 161 173 202 250 261 267 271 270 261 249 244 237 242 246 247 248 239 234 239 239 238 245 250 261 256 260 228 143 142 142 142 144 155 158 162
124 114 114 108 100 123 162 147 184 198 204 240 247 247 261 270 271 244 221 211 227 244 249 247 242 238 237 237 235 239 244 244 248 238 171 142 141 144 145 151 163 164 157
126 104 79 75 85 69 44 79 6 57 174 245 303 274 258 286 305 297 208 215 227 244 250 248 244 241 233 227 222 226 234 239 244 230 169 150 148 150 152 157 165 168 166
102 82 57 32 56 52 65 43 19 351 353 360 23 344 328 329 320 311 254 216 222 234 238 242 230 228 222 215 204 207 229 246 237 195 148 148 150 156 159 162 168 169 172
98 83 60 26 33 49 60 5 281 62 34 27 24 353 2 358 330 330 305 295 266 237 197 224 223 224 226 217 205 212 221 222 222 178 156 152 155 165 170 170 169 173 178
111 115 89 45 37 40 78 272 19 62 33 31 37 331 4 358 332 339 315 318 302 311 240 223 239 238 241 233 213 215 242 227 221 207 161 162 170 177 180 181 176 176 178
118 105 95 59 43 20 42 33 41 19 36 32 31 339 6 5 337 353 356 349 322 317 319 304 259 221 234 225 231 212 225 233 222 213 181 176 179 181 182 182 180 182 182
110 103 96 73 42 41 44 24 20 8 28 24 25 356 6 12 0 17 1 352 331 328 336 323 323 320 249 237 240 237 219 255 238 223 203 179 181 190 187 183 182 183 185
109 103 111 80 52 64 58 29 9 32 36 13 28 15 6 9 4 10 7 339 341 349 350 310 304 330 302 278 260 252 227 231 244 247 236 186 177 185 189 188 183 183 187
102 96 109 87 43 67 52 210 81 51 48 24 42 36 13 3 359 5 355 335 358 356 358 342 30 357 323 293 264 240 220 203 241 254 262 221 181 168 174 184 184 184 187
107 115 109 116 95 76 57 342 77 60 27 47 47 41 16 355 360 1 350 7 8 1 355 354 5 339 313 274 281 269 227 207 219 235 248 242 200 166 163 173 176 185 188
135 151 129 135 120 105 64 20 49 54 11 58 59 59 6 13 8 1 4 5 6 351 2 358 2 356 346 332 350 327 288 230 215 221 216 220 228 169 157 169 175 179 185
144 181 170 124 99 94 80 32 79 64 18 74 25 64 34 28 19 3 12 0 358 1 11 358 14 12 351 359 45 14 353 339 300 233 205 193 204 157 163 182 179 184 184
151 179 148 109 123 116 117 69 39 47 321 62 53 75 48 38 43 15 2 357 357 19 13 8 28 12 359 342 31 83 70 281 298 282 220 173 164 182 169 187 179 175 175
159 163 150 128 122 109 115 92 33 41 33 42 9 83 350 91 72 42 0 354 357 15 17 5 37 8 16 357 349 4 28 48 72 312 322 355 165 175 199 196 181 165 161
146 142 133 118 120 123 120 123 215 62 20 12 354 51 339 97 101 86 13 342 348 21 22 16 21 20 24 16 349 348 358 4 359 81 27 338 334 275 209 216 181 139 130
135 136 136 130 133 136 151 177 196 149 233 264 295 8 324 157 116 96 24 344 6 31 20 6 357 22 41 14 350 6 24 25 4 22 20 332 318 290 232 199 211 163 130
Height
1509 1509 1510 1511 1511 1512 1513 1514 1515 1516 1517 1518 1519 1520 1520 1521 1521 1522 1522 1523 1523 1523 1524 1524 1524 1524 1524 1524 1524 1524 1525 1525 1525 1525 1525 1526 1526 1526 1526 1526 1527 1527 1527
1509 1510 1510 1511 1512 1513 1514 1515 1515 1516 1517 1518 1518 1519 1520 1520 1521 1522 1522 1522 1523 1523 1523 1523 1524 1524 1524 1524 1525 1525 1525 1525 1525 1526 1526 1526 1526 1527 1527 1527 1527 1527 1528
1510 1510 1511 1512 1513 1513 1514 1515 1515 1516 1517 1517 1518 1519 1519 1520 1520 1521 1521 1522 1522 1523 1523 1523 1523 1523 1524 1524 1524 1525 1525 1525 1526 1526 1526 1527 1527 1527 1527 1527 1528 1528 1529
1511 1511 1512 1512 1513 1513 1514 1514 1515 1515 1516 1516 1517 1517 1518 1518 1519 1520 1520 1521 1521 1522 1522 1522 1523 1523 1523 1523 1524 1524 1525 1525 1526 1526 1527 1527 1527 1527 1527 1528 1528 1528 1529
1512 1511 1512 1512 1513 1513 1513 1513 1514 1514 1514 1515 1515 1516 1516 1517 1518 1518 1519 1519 1520 1520 1521 1521 1521 1522 1522 1522 1523 1524 1524 1525 1526 1526 1527 1527 1527 1527 1527 1527 1528 1529 1530
1512 1512 1512 1513 1513 1513 1513 1513 1513 1513 1513 1513 1514 1514 1515 1515 1516 1516 1517 1517 1518 1518 1519 1519 1520 1520 1521 1521 1522 1523 1523 1524 1525 1525 1526 1526 1526 1527 1527 1527 1528 1529 1530
1513 1512 1512 1512 1512 1512 1512 1512 1512 1511 1511 1512 1512 1512 1512 1513 1513 1514 1515 1515 1516 1517 1517 1517 1518 1518 1519 1520 1521 1521 1522 1523 1524 1525 1525 1526 1526 1526 1527 1527 1528 1529 1530
1513 1513 1512 1512 1512 1512 1511 1511 1511 1510 1510 1510 1510 1510 1510 1510 1511 1512 1512 1513 1514 1514 1515 1515 1516 1516 1517 1518 1519 1520 1521 1522 1523 1524 1525 1525 1526 1526 1526 1527 1528 1528 1529
1514 1514 1513 1512 1512 1511 1511 1510 1510 1509 1509 1508 1508 1508 1508 1509 1509 1509 1510 1510 1511 1512 1512 1513 1513 1514 1515 1516 1517 1518 1519 1520 1521 1523 1524 1524 1525 1525 1526 1527 1527 1528 1529
1514 1514 1514 1513 1512 1512 1510 1509 1509 1508 1508 1507 1507 1507 1507 1507 1508 1508 1508 1508 1509 1509 1510 1510 1511 1512 1513 1514 1515 1515 1517 1518 1520 1521 1522 1523 1524 1524 1525 1526 1527 1528 1529
1514 1514 1514 1513 1513 1512 1511 1510 1509 1508 1507 1507 1507 1506 1506 1506 1506 1507 1506 1506 1507 1507 1507 1507 1508 1509 1510 1511 1512 1513 1515 1516 1518 1519 1521 1521 1522 1523 1524 1525 1526 1527 1529
1513 1514 1514 1513 1513 1512 1511 1510 1509 1509 1508 1507 1507 1506 1506 1506 1506 1506 1505 1505 1505 1505 1505 1504 1505 1506 1507 1509 1510 1511 1513 1514 1516 1517 1519 1520 1521 1522 1523 1524 1525 1527 1528
1513 1513 1513 1513 1513 1512 1511 1510 1509 1508 1508 1508 1507 1506 1506 1505 1505 1504 1504 1504 1503 1503 1503 1503 1503 1504 1505 1506 1508 1509 1510 1512 1514 1516 1517 1518 1519 1521 1522 1523 1524 1526 1527
1512 1512 1513 1513 1512 1511 1510 1509 1509 1508 1508 1507 1506 1506 1505 1504 1504 1503 1503 1503 1502 1502 1502 1502 1502 1502 1503 1504 1505 1506 1508 1510 1512 1514 1515 1516 1518 1519 1520 1522 1523 1525 1526
1511 1511 1511 1512 1511 1510 1509 1508 1509 1508 1507 1507 1506 1505 1505 1504 1503 1502 1502 1501 1501 1501 1501 1501 1500 1501 1501 1502 1503 1504 1506 1508 1510 1512 1513 1515 1516 1517 1519 1520 1522 1524 1525
1510 1511 1510 1511 1510 1510 1509 1508 1508 1507 1507 1506 1505 1505 1504 1503 1502 1501 1501 1500 1500 1499 1499 1499 1499 1500 1500 1500 1501 1502 1504 1505 1507 1509 1511 1513 1514 1516 1517 1519 1520 1522 1524
1509 1510 1509 1510 1510 1509 1508 1507 1508 1507 1506 1506 1505 1504 1504 1502 1502 1501 1500 1499 1499 1498 1498 1498 1498 1498 1499 1499 1499 1501 1502 1503 1504 1507 1509 1511 1512 1514 1516 1517 1519 1521 1523
1508 1509 1508 1509 1509 1508 1507 1507 1507 1506 1506 1505 1504 1503 1502 1501 1501 1500 1499 1498 1498 1497 1497 1497 1497 1497 1497 1498 1498 1499 1500 1501 1502 1504 1507 1508 1510 1512 1514 1516 1518 1520 1521
1507 1508 1508 1508 1508 1507 1507 1506 1506 1506 1505 1505 1504 1502 1501 1500 1500 1499 1498 1498 1497 1497 1496 1496 1496 1496 1496 1496 1497 1498 1499 1500 1502 1503 1505 1506 1509 1510 1512 1514 1516 1518 1520
1506 1507 1507 1507 1507 1507 1506 1506 1506 1505 1505 1504 1503 1502 1501 1500 1499 1499 1498 1497 1496 1496 1495 1495 1495 1495 1495 1496 1496 1497 1498 1499 1500 1501 1503 1504 1507 1509 1510 1513 1515 1517 1519
1504 1506 1506 1506 1506 1505 1505 1505 1505 1505 1505 1504 1503 1502 1501 1500 1499 1498 1497 1497 1496 1495 1495 1494 1494 1494 1495 1495 1495 1496 1497 1498 1499 1500 1501 1503 1505 1507 1509 1512 1514 1516 1518
1503 1505 1506 1505 1505 1505 1504 1505 1505 1504 1504 1504 1503 1502 1501 1500 1499 1498 1497 1497 1496 1495 1494 1494 1494 1494 1494 1495 1495 1495 1497 1498 1498 1499 1501 1502 1504 1506 1508 1511 1512 1514 1516
1501 1503 1505 1504 1504 1503 1504 1504 1504 1504 1504 1504 1503 1502 1501 1500 1499 1498 1497 1497 1496 1495 1494 1494 1494 1494 1494 1495 1496 1497 1497 1497 1498 1499 1500 1501 1502 1504 1506 1508 1510 1513 1514
1499 1501 1503 1502 1503 1503 1503 1503 1503 1504 1504 1503 1503 1502 1501 1500 1499 1498 1497 1497 1496 1495 1495 1494 1494 1494 1495 1495 1496 1497 1498 1498 1499 1499 1500 1501 1502 1503 1505 1507 1508 1511 1512
1497 1499 1501 1501 1501 1502 1502 1502 1502 1503 1503 1503 1503 1502 1502 1501 1499 1498 1498 1497 1496 1496 1495 1495 1494 1494 1495 1495 1495 1496 1497 1498 1499 1499 1500 1501 1502 1503 1504 1505 1507 1509 1510
1495 1497 1498 1499 1500 1500 1501 1501 1502 1502 1502 1502 1502 1502 1501 1501 1500 1499 1498 1497 1496 1496 1495 1495 1495 1495 1495 1495 1496 1496 1497 1498 1498 1499 1500 1500 1501 1502 1503 1504 1506 1507 1508